FW9036 Weather Reports


time (UTC)temp
F
wind
direction
speed
knots
gust
knots
rain 1hr
in
rain 24hr
in
rain mn
in
humidity
%
barometer
mb
20260831202418 90 109 1.7 2.6 0.00 0.00 0.00 62 1015.3
20260831201912 90 88 0.9 2.6 0.00 0.00 0.00 61 1015.2
20260831201410 89 81 2.6 4.3 0.00 0.00 0.00 62 1015.2
20260831200907 91 30 1.7 3.5 0.00 0.00 0.00 60 1015.5
20260831200402 91 63 2.6 4.3 0.00 0.00 0.00 60 1015.6
20260831195856 91 56 1.7 4.3 0.00 0.00 0.00 59 1015.6
20260831195352 91 21 3.5 4.3 0.00 0.00 0.00 58 1015.3
20260831194847 90 35 3.5 3.5 0.00 0.00 0.00 59 1015.6
20260831194343 91 102 1.7 2.6 0.00 0.00 0.00 59 1015.7
20260831193842 91 149 0.0 3.5 0.00 0.00 0.00 58 1015.7
20260831193337 90 53 0.0 3.5 0.00 0.00 0.00 59 1015.6
20260831192832 89 166 1.7 6.1 0.00 0.00 0.00 62 1015.7
20260831192332 90 88 1.7 4.3 0.00 0.00 0.00 61 1015.7
20260831191828 90 106 0.9 3.5 0.00 0.00 0.00 61 1015.8
20260831191324 91 114 0.0 2.6 0.00 0.00 0.00 61 1015.7
20260831190819 90 139 2.6 3.5 0.00 0.00 0.00 63 1015.9
20260831190314 90 172 2.6 3.5 0.00 0.00 0.00 63 1016.2
20260831185813 91 82 0.9 2.6 0.00 0.00 0.00 60 1016.1
20260831185309 91 121 0.0 3.5 0.00 0.00 0.00 60 1016.1
20260831184808 90 116 1.7 3.5 0.00 0.00 0.00 60 1016.2
20260831184304 91 78 3.5 4.3 0.00 0.00 0.00 60 1016.4
20260831183759 90 112 2.6 2.6 0.00 0.00 0.00 63 1016.2
20260831183258 90 65 0.9 3.5 0.00 0.00 0.00 62 1016.4
20260831182757 90 44 1.7 4.3 0.00 0.00 0.00 62 1016.6
20260831182252 90 172 0.0 5.2 0.00 0.00 0.00 63 1016.4
20260831181748 90 134 3.5 3.5 0.00 0.00 0.00 64 1016.4
20260831181243 91 22 2.6 4.3 0.00 0.00 0.00 60 1016.3
20260831180743 89 102 2.6 3.5 0.00 0.00 0.00 64 1016.5
20260831180238 89 69 1.7 4.3 0.00 0.00 0.00 65 1016.6
20260831175737 88 90 0.0 4.3 0.00 0.00 0.00 67 1016.4
20260831175234 88 358 2.6 5.2 0.00 0.00 0.00 66 1016.6
20260831174729 89 7 2.6 3.5 0.00 0.00 0.00 65 1016.7
20260831174224 88 143 1.7 3.5 0.00 0.00 0.00 68 1016.6
20260831173723 89 74 0.9 3.5 0.00 0.00 0.00 66 1017.0
20260831173218 89 175 1.7 4.3 0.00 0.00 0.00 67 1017.2
20260831172713 90 178 4.3 4.3 0.00 0.00 0.00 67 1017.0
20260831172208 89 113 2.6 4.3 0.00 0.00 0.00 68 1017.1
20260831171702 88 149 2.6 4.3 0.00 0.00 0.00 68 1017.1
20260831171200 89 136 0.9 4.3 0.00 0.00 0.00 67 1017.1
20260831170656 89 142 0.0 2.6 0.00 0.00 0.00 66 1017.2
20260831170153 90 280 0.9 2.6 0.00 0.00 0.00 66 1017.1
20260831165649 89 165 0.9 2.6 0.00 0.00 0.00 68 1017.2
20260831165145 89 63 1.7 3.5 0.00 0.00 0.00 67 1017.3
20260831164640 88 68 0.0 3.5 0.00 0.00 0.00 70 1017.2
20260831164136 87 61 0.0 5.2 0.00 0.00 0.00 70 1017.4
20260831163631 87 57 0.9 3.5 0.00 0.00 0.00 71 1017.5
20260831163127 87 18 2.6 3.5 0.00 0.00 0.00 72 1017.3
20260831162626 87 39 2.6 5.2 0.00 0.00 0.00 72 1017.7
20260831162124 87 46 0.0 3.5 0.00 0.00 0.00 71 1017.5
20260831161620 87 52 0.0 3.5 0.00 0.00 0.00 72 1017.7
20260831161116 86 165 0.9 2.6 0.00 0.00 0.00 74 1017.8
20260831160615 87 23 1.7 3.5 0.00 0.00 0.00 73 1017.6
20260831160111 87 150 0.9 5.2 0.00 0.00 0.00 72 1017.6
20260831155605 89 96 0.9 3.5 0.00 0.00 0.00 69 1017.5
20260831155101 89 45 0.9 3.5 0.00 0.00 0.00 67 1017.8
20260831154556 88 134 1.7 1.7 0.00 0.00 0.00 69 1017.8
20260831154056 88 160 4.3 5.2 0.00 0.00 0.00 69 1017.7
20260831153555 88 100 2.6 3.5 0.00 0.00 0.00 68 1017.8
20260831153053 87 44 0.0 4.3 0.00 0.00 0.00 70 1017.8
20260831152547 87 39 2.6 3.5 0.00 0.00 0.00 71 1017.7
20260831152043 87 359 2.6 4.3 0.00 0.00 0.00 71 1017.7
20260831151542 87 207 0.9 2.6 0.00 0.00 0.00 73 1017.7
20260831151037 86 77 1.7 3.5 0.00 0.00 0.00 75 1017.9
20260831150532 85 233 0.0 2.6 0.00 0.00 0.00 75 1017.6
20260831150028 85 31 0.0 1.7 0.00 0.00 0.00 76 1017.5
20260831145522 85 37 0.0 0.9 0.00 0.00 0.00 77 1017.7
20260831145019 85 210 1.7 2.6 0.00 0.00 0.00 76 1017.7
20260831144514 86 266 0.0 1.7 0.00 0.00 0.00 74 1017.8
20260831144009 86 292 6.1 6.1 0.00 0.00 0.00 75 1017.5
20260831143504 86 335 0.9 1.7 0.00 0.00 0.00 75 1017.6
20260831142959 86 142 0.0 3.5 0.00 0.00 0.00 76 1017.3
20260831142456 85 296 0.0 2.6 0.00 0.00 0.00 76 1017.4
20260831141950 85 268 1.7 1.7 0.00 0.00 0.00 77 1017.4
20260831141449 84 113 0.0 1.7 0.00 0.00 0.00 78 1017.1
20260831140944 84 289 2.6 2.6 0.00 0.00 0.00 79 1017.0
20260831140439 83 186 0.0 2.6 0.00 0.00 0.00 79 1017.0
20260831135938 83 58 0.9 0.9 0.00 0.00 0.00 80 1016.8
20260831135437 83 226 1.7 4.3 0.00 0.00 0.00 80 1016.9
20260831134932 83 48 0.0 1.7 0.00 0.00 0.00 80 1016.9
20260831134429 82 296 4.3 4.3 0.00 0.00 0.00 80 1016.9
20260831133928 82 283 0.9 3.5 0.00 0.00 0.00 81 1016.9
20260831133428 82 331 1.7 3.5 0.00 0.00 0.00 81 1016.6
20260831132923 82 300 1.7 2.6 0.00 0.00 0.00 82 1016.5
20260831132419 81 256 1.7 2.6 0.00 0.00 0.00 85 1016.7
20260831131918 81 42 1.7 2.6 0.00 0.00 0.00 84 1016.8
20260831131414 81 29 1.7 1.7 0.00 0.00 0.00 85 1016.9
20260831130909 81 107 0.9 1.7 0.00 0.00 0.00 86 1017.0
20260831130405 80 275 0.0 1.7 0.00 0.00 0.00 85 1016.9
20260831125904 80 134 0.9 2.6 0.00 0.00 0.00 86 1016.8
20260831125359 80 100 0.9 1.7 0.00 0.00 0.00 87 1016.5
20260831124854 80 28 1.7 1.7 0.00 0.00 0.00 87 1016.4
20260831124350 80 238 0.0 0.9 0.00 0.00 0.00 88 1016.7
20260831123845 80 222 0.0 2.6 0.00 0.00 0.00 88 1016.8
20260831123344 79 290 0.0 2.6 0.00 0.00 0.00 88 1016.6
20260831122839 79 323 0.0 0.9 0.00 0.00 0.00 88 1016.7
20260831122334 79 236 0.0 0.9 0.00 0.00 0.00 89 1016.5
20260831121834 79 43 0.0 0.9 0.00 0.00 0.00 89 1016.4
20260831121330 79 139 0.0 1.7 0.00 0.00 0.00 90 1016.2
20260831120826 79 196 0.0 0.9 0.00 0.00 0.00 90 1016.3
20260831120320 79 24 1.7 2.6 0.00 0.00 0.00 90 1016.3
20260831115815 78 27 0.9 1.7 0.00 0.00 0.00 93 1016.3
20260831115312 78 98 0.0 0.0 0.00 0.00 0.00 95 1016.3
20260831114811 78 308 0.0 0.0 0.00 0.00 0.00 95 1016.1
20260831114310 78 236 0.0 0.0 0.00 0.00 0.00 96 1016.1
20260831113806 78 238 0.0 0.9 0.00 0.00 0.00 96 1016.0
20260831113305 78 155 0.0 0.9 0.00 0.00 0.00 96 1015.9
20260831112800 78 10 0.0 0.0 0.00 0.00 0.00 96 1015.9
20260831112255 78 70 0.0 0.0 0.00 0.00 0.00 96 1015.9
20260831111750 78 140 0.0 0.0 0.00 0.00 0.00 96 1015.9
20260831111247 78 110 0.0 0.0 0.00 0.00 0.00 97 1016.0
20260831110742 78 0 0.0 0.0 0.00 0.00 0.00 97 1015.8
20260831110237 78 91 0.0 0.0 0.00 0.00 0.00 97 1015.8
20260831105735 78 110 0.0 0.0 0.00 0.00 0.00 97 1015.8
20260831105232 78 123 0.0 0.0 0.00 0.00 0.00 97 1015.7
20260831104726 78 84 0.0 0.0 0.00 0.00 0.00 97 1015.8
20260831104223 78 104 0.0 0.9 0.00 0.00 0.00 97 1015.5
20260831103722 78 70 0.0 0.9 0.00 0.00 0.00 97 1015.6
20260831103218 78 9 0.0 1.7 0.00 0.00 0.00 97 1015.8
20260831102718 78 98 0.0 0.0 0.00 0.00 0.00 97 1015.5
20260831102213 78 146 0.0 1.7 0.00 0.00 0.00 97 1015.5
20260831101709 78 34 0.0 0.9 0.00 0.00 0.00 97 1015.3
20260831101204 78 237 0.0 0.0 0.00 0.00 0.00 97 1015.2
20260831100700 78 164 0.9 1.7 0.00 0.00 0.00 97 1015.4
20260831100156 78 10 0.0 0.9 0.00 0.00 0.00 97 1015.3
20260831095654 78 81 0.0 0.9 0.00 0.00 0.00 97 1015.4
20260831095149 78 327 0.0 0.0 0.00 0.00 0.00 97 1015.3
20260831094644 78 100 0.0 0.0 0.00 0.00 0.00 97 1015.3
20260831094140 78 103 0.0 0.9 0.00 0.00 0.00 97 1015.3
20260831093636 78 278 0.0 0.0 0.00 0.00 0.00 97 1015.4
20260831093131 78 120 0.0 0.0 0.00 0.00 0.00 97 1015.7
20260831092628 78 241 0.0 0.0 0.00 0.00 0.00 96 1015.3
20260831092123 78 174 0.0 0.0 0.00 0.00 0.00 96 1015.3
20260831091622 78 186 0.0 0.9 0.00 0.00 0.00 96 1015.3
20260831091118 78 315 0.0 0.0 0.00 0.00 0.00 96 1015.3
20260831090613 78 110 0.0 0.0 0.00 0.00 0.00 96 1015.3
20260831090109 78 211 0.0 0.0 0.00 0.00 0.00 96 1015.2
20260831085604 78 144 0.0 0.9 0.00 0.00 0.00 96 1015.4
20260831085100 78 290 0.0 0.0 0.00 0.00 0.00 96 1015.3
20260831084555 78 123 0.0 0.0 0.00 0.00 0.00 96 1015.3
20260831084052 77 123 0.0 0.0 0.00 0.00 0.00 96 1015.2
20260831083548 78 123 0.0 0.0 0.00 0.00 0.00 96 1015.3
20260831083042 77 43 0.0 0.0 0.00 0.00 0.00 96 1015.3
20260831082541 77 70 0.0 0.0 0.00 0.00 0.00 96 1015.3
20260831082037 77 70 0.0 0.0 0.00 0.00 0.00 96 1015.3
20260831081532 77 70 0.0 0.0 0.00 0.00 0.00 96 1015.1
20260831081029 78 70 0.0 0.0 0.00 0.00 0.00 96 1015.1
20260831080528 78 70 0.0 0.0 0.00 0.00 0.00 95 1015.2
20260831080024 78 70 0.0 0.0 0.00 0.00 0.00 95 1015.3
20260831075519 78 70 0.0 0.0 0.00 0.00 0.00 95 1015.3
20260831075015 78 70 0.0 0.0 0.00 0.00 0.00 95 1015.4
20260831074514 78 144 0.0 0.0 0.00 0.00 0.00 95 1015.3
20260831074014 78 144 0.0 0.0 0.00 0.00 0.00 95 1015.5
20260831073509 78 144 0.0 0.0 0.00 0.00 0.00 94 1015.2
20260831073008 78 144 0.0 0.0 0.00 0.00 0.00 94 1015.4
20260831072503 78 144 0.0 0.0 0.00 0.00 0.00 94 1015.5
20260831072000 78 144 0.0 0.0 0.00 0.00 0.00 94 1015.5
20260831071459 78 144 0.0 0.0 0.00 0.00 0.00 93 1015.7
20260831070954 78 198 0.0 0.0 0.00 0.00 0.00 93 1015.5
20260831070453 79 198 0.0 0.0 0.00 0.00 0.00 92 1015.6
20260831065952 79 31 0.0 0.0 0.00 0.00 0.00 92 1015.8
20260831065450 79 31 0.0 0.0 0.00 0.00 0.00 92 1015.7
20260831064945 79 31 0.0 0.0 0.00 0.00 0.00 92 1015.7
20260831064440 79 18 0.0 0.9 0.00 0.00 0.00 93 1015.9
20260831063936 79 123 0.0 0.0 0.00 0.00 0.00 92 1015.7
20260831063431 79 123 0.0 0.0 0.00 0.00 0.00 92 1015.7
20260831062925 79 6 0.0 0.0 0.00 0.00 0.00 92 1015.7
20260831062421 79 30 0.0 0.9 0.00 0.00 0.00 92 1016.0
20260831061920 79 176 0.0 0.0 0.00 0.00 0.00 91 1016.0
20260831061419 79 110 0.0 0.0 0.00 0.00 0.00 91 1015.9
20260831060915 79 112 0.0 0.0 0.00 0.00 0.00 91 1015.8
20260831060410 79 98 0.0 0.0 0.00 0.00 0.00 91 1015.9
20260831055909 79 98 0.0 0.0 0.00 0.00 0.00 91 1016.0
20260831055404 79 29 0.0 0.0 0.00 0.00 0.00 91 1016.2
20260831054859 78 265 0.0 0.0 0.00 0.00 0.00 91 1016.2
20260831054354 79 116 0.0 0.9 0.00 0.00 0.00 91 1016.3
20260831053853 79 31 0.0 0.0 0.00 0.00 0.00 91 1016.3
20260831053352 79 3 0.0 0.0 0.00 0.00 0.00 91 1016.4
20260831052847 79 196 0.0 0.9 0.00 0.00 0.00 90 1016.3
20260831052346 79 36 0.0 0.0 0.00 0.00 0.00 90 1016.2
20260831051844 79 36 0.0 0.0 0.00 0.00 0.00 90 1016.4
20260831051343 79 290 0.0 0.0 0.00 0.00 0.00 90 1016.3
20260831050838 79 250 0.0 0.0 0.00 0.00 0.00 90 1016.1
20260831050337 79 18 0.0 0.9 0.00 0.00 0.00 90 1016.4
20260831045832 79 290 0.0 0.0 0.00 0.00 0.00 90 1016.4
20260831045326 79 123 0.0 0.0 0.00 0.00 0.00 90 1016.2
20260831044821 79 31 0.9 0.9 0.00 0.00 0.00 90 1016.0
20260831044316 79 180 0.0 0.0 0.00 0.00 0.00 90 1016.2
20260831043813 79 205 0.0 0.0 0.00 0.00 0.00 89 1016.3
20260831043312 80 190 0.9 1.7 0.00 0.00 0.00 88 1016.1
20260831042807 80 16 0.9 1.7 0.00 0.00 0.00 88 1016.0
20260831042307 80 25 0.0 0.0 0.00 0.00 0.00 88 1016.4
20260831041802 79 212 0.0 0.0 0.00 0.00 0.00 88 1016.4
20260831041301 79 211 0.0 0.0 0.00 0.00 0.00 88 1016.3
20260831040756 79 33 0.0 0.0 0.00 0.00 0.00 88 1016.4
20260831040255 79 250 0.0 0.0 0.00 0.00 0.00 88 1016.2
20260831035754 80 127 0.0 0.0 0.00 0.00 0.00 87 1016.4
20260831035253 80 38 0.0 0.0 0.00 0.00 0.00 87 1016.4
20260831034752 80 216 0.9 0.9 0.00 0.00 0.00 86 1016.4
20260831034248 80 6 0.0 1.7 0.00 0.00 0.00 86 1016.4
20260831033743 80 262 0.0 1.7 0.00 0.00 0.00 86 1016.5
20260831033243 80 3 0.0 1.7 0.00 0.00 0.00 85 1016.4
20260831032738 80 113 0.0 0.9 0.00 0.00 0.00 85 1016.7
20260831032233 80 73 0.0 0.9 0.00 0.00 0.00 85 1016.6
20260831031728 80 259 0.9 0.9 0.00 0.00 0.00 84 1016.6
20260831031223 80 55 0.9 0.9 0.00 0.00 0.00 84 1016.8
20260831030722 80 31 0.0 0.0 0.00 0.00 0.00 84 1016.9
20260831030221 80 110 0.0 0.9 0.00 0.00 0.00 83 1016.8
20260831025720 80 193 0.0 0.0 0.00 0.00 0.00 83 1017.1
20260831025214 80 127 0.0 0.0 0.00 0.00 0.00 82 1017.2
20260831024710 80 285 0.0 0.9 0.00 0.00 0.00 82 1016.9
20260831024204 80 176 0.0 1.7 0.00 0.00 0.00 81 1017.2
20260831023702 80 250 0.0 0.0 0.00 0.00 0.00 82 1017.2
20260831023201 80 341 0.0 1.7 0.00 0.00 0.00 83 1017.0
20260831022656 80 202 0.9 1.7 0.00 0.00 0.00 84 1016.9
20260831022151 80 127 0.0 0.9 0.00 0.00 0.00 85 1016.8
20260831021650 80 43 0.0 1.7 0.00 0.00 0.00 85 1016.9
20260831021145 81 193 0.0 0.9 0.00 0.00 0.00 85 1016.9
20260831020642 80 108 0.0 1.7 0.00 0.00 0.00 86 1016.9
20260831020136 80 113 0.0 1.7 0.00 0.00 0.00 87 1016.9
20260831015632 80 250 0.0 0.9 0.00 0.00 0.00 86 1016.8
20260831015131 80 205 0.0 0.9 0.00 0.00 0.00 86 1016.8
20260831014626 80 95 0.0 0.9 0.00 0.00 0.00 86 1016.6
20260831014121 81 176 0.0 0.0 0.00 0.00 0.00 87 1016.8
20260831013618 81 30 0.9 0.9 0.00 0.00 0.00 87 1016.8
20260831013117 81 61 0.0 0.9 0.00 0.00 0.00 86 1016.7
20260831012612 81 190 0.0 0.9 0.00 0.00 0.00 86 1016.7
20260831012107 81 146 0.0 0.9 0.00 0.00 0.00 85 1016.8
20260831011606 81 318 0.0 2.6 0.00 0.00 0.00 85 1016.6
20260831011102 81 43 0.0 0.0 0.00 0.00 0.00 85 1016.6
20260831010557 81 101 0.9 1.7 0.00 0.00 0.00 85 1016.7
20260831010054 81 278 0.0 0.9 0.00 0.00 0.00 85 1016.5
20260831005548 81 123 0.0 1.7 0.00 0.00 0.00 84 1016.8
20260831005048 81 153 0.0 1.7 0.00 0.00 0.00 83 1016.4
20260831004544 81 163 0.0 0.9 0.00 0.00 0.00 82 1016.6
20260831004039 81 1 0.0 0.0 0.00 0.00 0.00 82 1016.9
20260831003536 81 18 0.0 0.0 0.00 0.00 0.00 81 1016.7
20260831003031 81 181 0.0 0.9 0.00 0.00 0.00 81 1016.3
20260831002529 81 236 0.0 0.9 0.00 0.00 0.00 81 1016.4
20260831002025 81 84 0.0 1.7 0.00 0.00 0.00 81 1016.2
20260831001521 81 264 0.0 0.9 0.00 0.00 0.00 80 1016.5
20260831001017 82 223 0.0 1.7 0.00 0.00 0.00 79 1016.5
20260831000513 82 60 0.0 1.7 0.00 0.00 0.00 78 1016.2
20260831000012 82 127 0.0 0.9 0.00 0.00 0.00 78 1016.3
20260830235512 82 110 1.7 1.7 0.00 0.00 0.00 77 1016.1
20260830235007 82 236 0.0 0.9 0.00 0.00 0.00 77 1016.0
20260830234502 83 296 0.0 0.0 0.00 0.00 0.00 78 1016.2
20260830233957 83 193 0.0 1.7 0.00 0.00 0.00 77 1016.3
20260830233453 83 346 0.0 1.7 0.00 0.00 0.00 76 1016.2
20260830232948 84 56 0.9 1.7 0.00 0.00 0.00 75 1016.2
20260830232444 84 255 0.9 0.9 0.00 0.00 0.00 74 1016.3
20260830231941 85 47 0.9 1.7 0.00 0.00 0.00 74 1016.1
20260830231436 85 107 1.7 2.6 0.00 0.00 0.00 72 1016.2
20260830230935 86 158 0.9 2.6 0.00 0.00 0.00 72 1015.9
20260830230431 87 201 0.0 2.6 0.00 0.00 0.00 70 1015.8
20260830225930 87 208 2.6 2.6 0.00 0.00 0.00 69 1015.9
20260830225426 88 92 0.0 1.7 0.00 0.00 0.00 67 1016.0
20260830224926 87 198 0.9 1.7 0.00 0.00 0.00 69 1016.0
20260830224424 87 124 1.7 2.6 0.00 0.00 0.00 70 1016.1
20260830223921 87 96 0.9 3.5 0.00 0.00 0.00 70 1016.0
20260830223418 86 169 0.9 3.5 0.00 0.00 0.00 70 1015.8
20260830222916 87 137 5.2 5.2 0.00 0.00 0.00 70 1015.8
20260830222412 87 129 0.9 3.5 0.00 0.00 0.00 70 1015.6
20260830221908 87 166 3.5 3.5 0.00 0.00 0.00 71 1015.6
20260830221404 87 113 1.7 4.3 0.00 0.00 0.00 72 1015.5
20260830220859 86 145 1.7 2.6 0.00 0.00 0.00 74 1015.5
20260830220359 87 73 1.7 3.5 0.00 0.00 0.00 72 1015.6
20260830215856 86 89 1.7 2.6 0.00 0.00 0.00 72 1015.5
20260830215356 86 152 1.7 1.7 0.00 0.00 0.00 73 1015.5
20260830214851 86 100 0.0 2.6 0.00 0.00 0.00 72 1015.6
20260830214347 86 152 0.0 1.7 0.00 0.00 0.00 72 1015.3
20260830213841 87 84 0.0 2.6 0.00 0.00 0.00 71 1015.5
20260830213336 88 129 1.7 2.6 0.00 0.00 0.00 70 1015.5
20260830212832 89 33 2.6 3.5 0.00 0.00 0.00 68 1015.4
20260830212328 90 56 1.7 2.6 0.00 0.00 0.00 66 1015.6
20260830211826 90 142 2.6 2.6 0.00 0.00 0.00 66 1015.4
20260830211321 90 75 0.0 3.5 0.00 0.00 0.00 66 1015.3
20260830210817 89 67 0.9 2.6 0.00 0.00 0.00 67 1015.3
20260830210316 89 82 1.7 3.5 0.00 0.00 0.00 68 1015.4
20260830205814 89 102 2.6 4.3 0.00 0.00 0.00 69 1015.5
20260830205313 90 118 2.6 3.5 0.00 0.00 0.00 65 1015.4
20260830204809 91 180 2.6 2.6 0.00 0.00 0.00 65 1015.6
20260830204308 91 108 3.5 3.5 0.00 0.00 0.00 65 1015.6
20260830203804 92 114 1.7 7.8 0.00 0.00 0.00 64 1015.8
20260830203300 91 67 0.9 2.6 0.00 0.00 0.00 62 1015.8
20260830202759 91 31 2.6 3.5 0.00 0.00 0.00 63 1015.6